Weather History for Spirit of St Louis, MO

Change the Weather History Date:

Friday, February 15, 2013

  Actual Average Record
Temperature  
Mean Temperature 34 °F -  
Max Temperature 42 °F 44 °F 73 °F (2005)
Min Temperature 26 °F 27 °F 6 °F (2007)
Degree Days  
Heating Degree Days 31    
Moisture  
Dew Point 18 °F    
Average Humidity 53    
Maximum Humidity 72    
Minimum Humidity 30    
Precipitation  
Precipitation 0.00 in - - ()
Sea Level Pressure  
Sea Level Pressure 30.23 in    
Wind  
Wind Speed 9 mph (NW)    
Max Wind Speed 16 mph    
Max Gust Speed 23 mph    
Visibility 10 miles    
Events      
Averages and records for this station are not official NWS values.
T = Trace of Precipitation, MM = Missing Value Source: NWS Daily Summary

Daily Weather History Graph

Daily Weather History Graph

Search for Another Location

Airport:

Trip Planner

Search our weather history database for the weather conditions in past years. The results will help you decide how hot, cold, wet, or windy it might be!

Date:

Astronomy

Feb. 15, 2013 Rise Set
Actual Time 6:53 AM CST 5:40 PM CST
Civil Twilight 6:26 AM CST 6:08 PM CST
Nautical Twilight 5:54 AM CST 6:39 PM CST
Astronomical Twilight 5:24 AM CST 7:09 PM CST
Moon 9:33 AM CST (2/15) 11:37 PM CST (2/15)
Length of Visible Light 11h 41m
Length of Day
10h 47m
Waxing Crescent, 30% of the Moon is Illuminated
Feb 15
Waxing Crescent
Feb 17
First Quarter
Feb 25
Full
Mar 4
Last Quarter
Mar 11
New

Hourly Weather History & Observations

Time (CST) Temp. Windchill Dew Point Humidity Pressure Visibility Wind Dir Wind Speed Gust Speed Precip Events Conditions
12:54 AM 42.1 °F 36.1 °F 27.0 °F 55% 30.09 in 10.0 mi WNW 10.4 mph - N/A   Overcast
1:54 AM 39.0 °F 33.4 °F 24.1 °F 55% 30.11 in 10.0 mi WNW 8.1 mph - N/A   Scattered Clouds
2:54 AM 37.0 °F 31.6 °F 25.0 °F 62% 30.12 in 10.0 mi WNW 6.9 mph - N/A   Clear
3:54 AM 36.0 °F 31.1 °F 25.0 °F 64% 30.14 in 10.0 mi North 5.8 mph - N/A   Mostly Cloudy
4:47 AM 35.6 °F 30.7 °F 24.8 °F 65% 30.16 in 10.0 mi NNW 5.8 mph - N/A   Overcast
4:54 AM 34.0 °F 28.0 °F 25.0 °F 70% 30.17 in 10.0 mi NNW 6.9 mph - N/A   Overcast
5:11 AM 33.8 °F 27.7 °F 24.8 °F 70% 30.16 in 10.0 mi NNW 6.9 mph - N/A   Overcast
5:54 AM 33.1 °F 24.9 °F 25.0 °F 72% 30.20 in 10.0 mi WNW 10.4 mph - N/A   Mostly Cloudy
6:54 AM 32.0 °F 21.2 °F 21.9 °F 66% 30.23 in 10.0 mi NW 16.1 mph 23.0 mph N/A   Mostly Cloudy
7:54 AM 30.9 °F 21.2 °F 21.0 °F 67% 30.27 in 10.0 mi NNW 12.7 mph 20.7 mph N/A   Mostly Cloudy
8:26 AM 30.2 °F 19.3 °F 19.4 °F 64% 30.26 in 10.0 mi NW 15.0 mph - N/A   Mostly Cloudy
8:54 AM 30.9 °F 19.8 °F 18.0 °F 59% 30.29 in 10.0 mi NNW 16.1 mph - N/A   Scattered Clouds
9:54 AM 33.1 °F 23.0 °F 16.0 °F 50% 30.30 in 10.0 mi NW 15.0 mph - N/A   Clear
10:54 AM 35.1 °F 27.4 °F 12.0 °F 39% 30.30 in 10.0 mi NNW 10.4 mph - N/A   Clear
11:54 AM 37.0 °F 29.3 °F 14.0 °F 39% 30.29 in 10.0 mi NW 11.5 mph 17.3 mph N/A   Clear
12:54 PM 37.9 °F 31.5 °F 12.0 °F 35% 30.27 in 10.0 mi NNW 9.2 mph - N/A   Clear
1:54 PM 39.0 °F 32.3 °F 10.9 °F 32% 30.26 in 10.0 mi North 10.4 mph - N/A   Clear
2:54 PM 39.0 °F 31.8 °F 12.0 °F 33% 30.25 in 10.0 mi WNW 11.5 mph - N/A   Scattered Clouds
3:54 PM 39.0 °F 36.8 °F 10.0 °F 30% 30.26 in 10.0 mi Variable 3.5 mph - N/A   Partly Cloudy
4:54 PM 37.9 °F 32.1 °F 10.9 °F 33% 30.26 in 10.0 mi NNW 8.1 mph - N/A   Partly Cloudy
5:54 PM 32.0 °F 25.6 °F 12.9 °F 45% 30.27 in 10.0 mi NW 6.9 mph - N/A   Clear
6:54 PM 28.9 °F - 14.0 °F 54% 30.27 in 10.0 mi Calm Calm - N/A   Scattered Clouds
7:54 PM 26.1 °F - 17.1 °F 69% 30.27 in 10.0 mi Calm Calm - N/A   Clear
8:54 PM 30.9 °F 23.5 °F 15.1 °F 52% 30.27 in 10.0 mi WNW 8.1 mph - N/A   Mostly Cloudy
9:54 PM 30.9 °F 22.2 °F 15.1 °F 52% 30.27 in 10.0 mi NW 10.4 mph - N/A   Mostly Cloudy
10:54 PM 28.9 °F 22.8 °F 15.1 °F 56% 30.27 in 10.0 mi NW 5.8 mph - N/A   Partly Cloudy
11:54 PM 28.9 °F 19.2 °F 15.1 °F 56% 30.26 in 10.0 mi North 11.5 mph - N/A   Clear